Simultaneous Nadir Overpasses (SNOs) Predictions

Prediction of SNOs between GOES-15 and METOP-A Satellite Orbit:

Table of predicted SNOs for the next 14.0 days since TLE Epoch: 11/29/2019
Index Date Time (GOES-15) GOES-15 Lat,Lon METOP-A Lat,Lon Distance(km) Time Diff (sec)
1 11/30/2019 05:46:09 0.20,-128.38 -0.66,-132.35 451.61 80
2 12/01/2019 05:22:50 0.20,-128.36 0.42,-127.36 113.74 80
3 12/02/2019 17:41:41 -0.19,-128.32 0.64,-131.94 413.23 80
4 12/03/2019 17:23:43 -0.19,-128.30 -0.51,-126.97 152.32 80
5 12/05/2019 05:42:43 0.18,-128.28 -0.56,-131.59 376.52 80
6 12/06/2019 05:19:24 0.18,-128.26 0.53,-126.60 188.51 80
7 12/07/2019 17:38:16 -0.17,-128.22 0.47,-131.20 339.28 80
8 12/08/2019 17:20:17 -0.18,-128.19 -0.62,-126.21 225.72 80
9 12/10/2019 05:39:17 0.17,-128.17 -0.45,-130.83 303.78 80
10 12/11/2019 05:15:58 0.17,-128.14 0.70,-125.86 260.53 80
11 12/12/2019 17:34:50 -0.16,-128.08 0.36,-130.44 268.85 80
12 12/13/2019 17:16:50 -0.16,-128.04 -0.73,-125.45 295.23 80




NCC Satellite Simultaneous Nadir Overpasses (SNOs) Prediction Service
